Home   Weather   Kyiv   Past weeks
Flag for Ukraine

Past Weather in Kyiv, Ukraine — Yesterday and Last 2 Weeks

Now
61 °F

Clear.


Feels Like: 61 °F
Forecast: 73 / 44 °F
Wind: 3 mph from Southwest

Location: Kyiv

Current Time: Apr 25, 2019 at 9:40:55 pm

Latest Report: Apr 25, 2019 at 9:00 pm


Visibility: 6 mi

Pressure: 30.21 "Hg

Humidity: 36%

Dew Point: 34 °F

Location of KyivLocation

Past Weather in Kyiv — Graph

°F

Kyiv Temperature Yesterday

Maximum temperature yesterday: 70 °F (at 1:30 pm)
Minimum temperature yesterday: 37 °F (at 4:30 am)
Average temperature yesterday: 56 °F

High & Low Weather Summary for the Past Weeks

 TemperatureHumidityPressure
High72 °F (Apr 25, 4:00 pm)100% (Apr 11, 10:30 pm)30.42 "Hg (Apr 11, 10:30 pm)
Low32 °F (Apr 20, 4:00 am)19% (Apr 23, 1:30 pm)29.83 "Hg (Apr 10, 8:00 pm)
Average48 °F63%30.18 "Hg
* Reported Apr 10 8:00 pm — Apr 25 8:30 pm, Kyiv. Weather by CustomWeather, © 2019

Note: Actual official high and low records may vary slightly from our data, if they occured in-between our weather recording intervals... More about our weather records

Advertising

Kyiv Weather History for the Previous 24 Hours

Scroll right to see more
 ConditionsComfort  
Time TempWeatherWind HumidityBarometerVisibility
8:30 pm
Thu, Apr 25
64 °FPassing clouds.3 mph32%30.21 "HgN/A
8:00 pm66 °FPassing clouds.3 mph30%30.18 "HgN/A
7:30 pm68 °FPassing clouds.8 mph28%30.18 "HgN/A
7:00 pm68 °FPassing clouds.8 mph26%30.18 "HgN/A
6:30 pm70 °FPassing clouds.6 mph27%30.18 "HgN/A
6:00 pm70 °FPassing clouds.3 mph27%30.21 "HgN/A
5:30 pm70 °FPassing clouds.8 mph27%30.21 "HgN/A
5:00 pm72 °FPassing clouds.6 mph25%30.21 "HgN/A
4:30 pm72 °FPassing clouds.8 mph25%30.24 "HgN/A
4:00 pm72 °FPassing clouds.8 mph25%30.24 "HgN/A
3:30 pm70 °FPassing clouds.8 mph27%30.24 "HgN/A
3:00 pm70 °FPassing clouds.8 mph27%30.27 "HgN/A
2:30 pm70 °FPassing clouds.8 mph25%30.27 "HgN/A
2:00 pm70 °FPassing clouds.8 mph27%30.27 "HgN/A
1:30 pm70 °FPassing clouds.8 mph25%30.27 "HgN/A
1:00 pm70 °FPassing clouds.8 mph25%30.30 "HgN/A
12:30 pm68 °FPassing clouds.8 mph26%30.30 "HgN/A
12:00 pm68 °FPassing clouds.6 mph30%30.30 "HgN/A
11:30 am66 °FSunny.3 mph32%30.33 "Hg10 mi
11:00 am64 °FPassing clouds.6 mph32%30.33 "HgN/A
10:30 am64 °FPassing clouds.6 mph37%30.33 "HgN/A
10:00 am63 °FPassing clouds.3 mph34%30.33 "HgN/A
9:30 am61 °FPassing clouds.3 mph39%30.33 "HgN/A
9:00 am59 °FSunny.3 mph45%30.33 "Hg10 mi
8:30 am57 °FSunny.3 mph51%30.33 "Hg10 mi
8:00 am54 °FSunny.3 mph67%30.33 "Hg10 mi
7:30 am48 °FSunny.3 mph76%30.33 "Hg10 mi
7:00 am46 °FClear.1 mph76%30.33 "HgN/A
6:30 am43 °FClear.1 mph76%30.33 "HgN/A
6:00 am41 °FSunny.No wind76%30.33 "Hg10 mi
5:30 am43 °FClear.No wind71%30.33 "Hg10 mi
5:00 am41 °FClear.1 mph81%30.33 "Hg10 mi
4:30 am41 °FClear.3 mph76%30.33 "Hg10 mi
4:00 am43 °FClear.3 mph71%30.33 "Hg10 mi
3:30 am45 °FClear.3 mph61%30.33 "HgN/A
3:00 am48 °FClear.6 mph54%30.33 "HgN/A
2:30 am45 °FClear.6 mph66%30.33 "HgN/A
2:00 am45 °FClear.3 mph66%30.33 "HgN/A
1:30 am48 °FClear.3 mph54%30.33 "Hg10 mi
1:00 am48 °FClear.6 mph54%30.33 "Hg10 mi
12:30 am50 °FClear.1 mph54%30.33 "Hg10 mi
12:00 am50 °FClear.3 mph58%30.33 "Hg6 mi
11:30 pm
Wed, Apr 24
48 °FClear.No wind58%30.30 "Hg6 mi
11:00 pm48 °FClear.1 mph58%30.30 "HgN/A
10:30 pm50 °FClear.No wind58%30.30 "Hg5 mi
10:00 pm52 °FClear.No wind54%30.30 "Hg5 mi
9:30 pm54 °FClear.No wind47%30.30 "Hg6 mi
9:00 pm55 °FClear.No wind41%30.30 "HgN/A
Weather by CustomWeather, © 2019

See weather overview